This demonstration page uses our WeatherBlox Daily Observations layout. Learn more.

38.88101, -77.10428

Hourly Observations for January 1, 2016

Temp ( °F °C ) Dew Point ( °F °C ) Humidity (%) Winds ( mph kmh ) Pressure ( in mb ) Visibility ( mi km ) Precip ( " mm )
12:52 am 00:52 Cloudy 45 7 32 0 61 61 NNW 8 13 30.15 1021 10 16.09344 0 0
1:52 am 01:52 Mostly Cloudy 43 6 32 0 66 66 N 7 11 30.15 1021 10 16.09344 0 0
2:52 am 02:52 Mostly Cloudy 43 6 32 0 66 66 NNW 8 13 30.15 1021 10 16.09344 0 0
3:52 am 03:52 Mostly Cloudy 43 6 30 -1 61 61 NW 7 11 30.15 1021 10 16.09344 0 0
4:52 am 04:52 Cloudy 43 6 30 -1 61 61 NW 8 13 30.15 1021 10 16.09344 0 0
5:52 am 05:52 Cloudy 43 6 28 -2 57 57 NW 10 17 30.15 1021 10 16.09344 0 0
6:52 am 06:52 Cloudy 41 5 28 -2 61 61 NNW 7 11 30.15 1021 10 16.09344 0 0
7:52 am 07:52 Cloudy 41 5 28 -2 61 61 NNW 9 15 30.15 1021 10 16.09344 0 0
8:52 am 08:52 Cloudy 41 5 28 -2 61 61 NW 7 11 30.15 1021 10 16.09344 0 0
9:52 am 09:52 Cloudy 43 6 30 -1 61 61 NNW 10 17 30.18 1022 10 16.09344 0 0
10:52 am 10:52 Cloudy 45 7 30 -1 57 57 WNW 9 15 30.18 1022 10 16.09344 0 0
11:52 am 11:52 Cloudy 45 7 30 -1 57 57 WNW 8 13 30.12 1020 10 16.09344 0 0
12:52 pm 12:52 Cloudy 46 8 30 -1 53 53 WNW 13 20 30.12 1020 10 16.09344 0 0
1:52 pm 13:52 Cloudy 45 7 30 -1 57 57 WNW 12 19 30.09 1019 10 16.09344 0 0
2:52 pm 14:52 Cloudy 45 7 30 -1 57 57 NW 7 11 30.09 1019 10 16.09344 0 0
3:52 pm 15:52 Cloudy 45 7 28 -2 53 53 WNW 7 11 30.09 1019 10 16.09344 0 0
4:21 pm 16:21 Mostly Cloudy 43 6 27 -3 53 53 NW 8 13 30.09 1019 10 16.09344 0 0
4:52 pm 16:52 Mostly Cloudy 43 6 27 -3 53 53 NNW 7 11 30.09 1019 10 16.09344 0 0
5:52 pm 17:52 Mostly Cloudy 41 5 25 -4 53 53 N 7 11 30.12 1020 10 16.09344 0 0
6:52 pm 18:52 Cloudy 50 10 36 2 58 58 N 9 15 30.15 1021 10 16.09344 0 0
7:52 pm 19:52 Clear 39 4 23 -5 52 52 NNW 8 13 30.15 1021 10 16.09344 0 0
8:52 pm 20:52 Clear 39 4 21 -6 48 48 NW 13 20 30.15 1021 10 16.09344 0 0
9:52 pm 21:52 Clear 37 3 21 -6 52 52 WSW 7 11 30.15 1021 10 16.09344 0 0
10:52 pm 22:52 Mostly Clear 37 3 21 -6 52 52 SSW 5 7 30.15 1021 10 16.09344 0 0
11:52 pm 23:52 Mostly Clear 37 3 21 -6 52 52 W 6 9 30.15 1021 10 16.09344 0 0

Powered by AerisWeather